When you browse on this site, cookies collect data to enhance your experience and personalize the content and advertising you see.
Visit our Privacy Policy to learn more. By continuing to use the site, you agree to this use of cookies and data.
  • In Romania
  • List of Countries
  • For 7 days
  • Water Temperature
  • Satellite Maps
  • Weather Map
  • Weather Widgets
  • user-avatar
    Login

    Hourly Weather Balchik

    Today, 24 May, Friday

    Time Temperature Precipitation Wind Pressure Humidity
    00:00 +14°C° 0 mm 3 mps 735 mmHg 88%
    01:00 +14°C° 0 mm 3 mps 735 mmHg 89%
    02:00 +13°C° 0 mm 3 mps 735 mmHg 90%
    03:00 +13°C° 0 mm 3 mps 735 mmHg 89%
    04:00 +13°C° 0 mm 3 mps 734 mmHg 88%
    05:00 +13°C° 0 mm 3 mps 734 mmHg 87%
    06:00 +14°C° 0 mm 4 mps 734 mmHg 85%
    07:00 +14°C° 0 mm 4 mps 734 mmHg 84%
    08:00 +15°C° 0 mm 4 mps 735 mmHg 82%
    09:00 +17°C° 0 mm 4 mps 735 mmHg 78%
    10:00 +18°C° 0 mm 4 mps 735 mmHg 73%
    11:00 +20°C° 0 mm 4 mps 735 mmHg 69%
    12:00 +20°C° 0.5 mm 3 mps 734 mmHg 67%
    13:00 +21°C° 0.5 mm 3 mps 734 mmHg 65%
    14:00 +21°C° 0.5 mm 2 mps 734 mmHg 63%
    15:00 +21°C° 0.7 mm 2 mps 734 mmHg 64%
    16:00 +21°C° 0.7 mm 2 mps 733 mmHg 66%
    17:00 +22°C° 0.7 mm 1 mps 733 mmHg 67%
    18:00 +20°C° 1.4 mm 1 mps 733 mmHg 74%
    19:00 +18°C° 1.4 mm 2 mps 733 mmHg 80%
    20:00 +16°C° 1.4 mm 2 mps 733 mmHg 86%
    21:00 +16°C° 0.3 mm 2 mps 733 mmHg 88%
    22:00 +15°C° 0.3 mm 2 mps 733 mmHg 90%
    23:00 +15°C° 0.3 mm 2 mps 733 mmHg 92%

    Tomorrow, 25 May, Saturday

    Time Temperature Precipitation Wind Pressure Humidity
    00:00 +14°C° 0.1 mm 3 mps 733 mmHg 93%
    01:00 +14°C° 0.1 mm 3 mps 733 mmHg 93%
    02:00 +14°C° 0.1 mm 4 mps 733 mmHg 94%
    03:00 +13°C° 0.2 mm 4 mps 733 mmHg 94%
    04:00 +13°C° 0.2 mm 4 mps 734 mmHg 94%
    05:00 +13°C° 0.2 mm 5 mps 734 mmHg 93%
    06:00 +14°C° 0.1 mm 5 mps 734 mmHg 91%
    07:00 +14°C° 0.1 mm 5 mps 734 mmHg 88%
    08:00 +15°C° 0.1 mm 6 mps 735 mmHg 85%
    09:00 +17°C° 0.2 mm 6 mps 735 mmHg 81%
    10:00 +19°C° 0.2 mm 6 mps 735 mmHg 77%
    11:00 +21°C° 0.2 mm 6 mps 736 mmHg 73%
    12:00 +21°C° 0.8 mm 5 mps 735 mmHg 71%
    13:00 +22°C° 0.8 mm 4 mps 735 mmHg 69%
    14:00 +22°C° 0.8 mm 3 mps 735 mmHg 66%
    15:00 +22°C° 1.7 mm 3 mps 735 mmHg 70%
    16:00 +21°C° 1.7 mm 3 mps 735 mmHg 73%
    17:00 +21°C° 1.7 mm 2 mps 735 mmHg 76%
    18:00 +20°C° 0.1 mm 2 mps 735 mmHg 80%
    19:00 +18°C° 0.1 mm 3 mps 735 mmHg 84%
    20:00 +17°C° 0.1 mm 3 mps 735 mmHg 88%
    21:00 +17°C° 0 mm 3 mps 736 mmHg 89%
    22:00 +16°C° 0 mm 3 mps 736 mmHg 90%
    23:00 +16°C° 0 mm 3 mps 736 mmHg 91%

    Day after tomorrow, 26 May, Sunday

    Time Temperature Precipitation Wind Pressure Humidity
    00:00 +14°C° 0 mm 3 mps 736 mmHg 91%
    01:00 +14°C° 0 mm 3 mps 736 mmHg 91%
    02:00 +14°C° 0 mm 3 mps 737 mmHg 91%
    03:00 +14°C° 0.2 mm 3 mps 737 mmHg 92%
    04:00 +13°C° 0.2 mm 3 mps 737 mmHg 93%
    05:00 +13°C° 0.2 mm 3 mps 737 mmHg 94%
    06:00 +16°C° 0 mm 3 mps 738 mmHg 89%
    07:00 +18°C° 0 mm 3 mps 738 mmHg 84%
    08:00 +20°C° 0 mm 3 mps 739 mmHg 80%
    09:00 +21°C° 0 mm 2 mps 739 mmHg 74%
    10:00 +23°C° 0 mm 1 mps 739 mmHg 68%
    11:00 +25°C° 0 mm 1 mps 739 mmHg 61%
    12:00 +25°C° 0.1 mm 1 mps 739 mmHg 60%
    13:00 +26°C° 0.1 mm 2 mps 739 mmHg 59%
    14:00 +26°C° 0.1 mm 2 mps 739 mmHg 58%
    15:00 +26°C° 0.4 mm 2 mps 739 mmHg 62%
    16:00 +25°C° 0.4 mm 3 mps 739 mmHg 66%
    17:00 +24°C° 0.4 mm 3 mps 738 mmHg 71%
    18:00 +22°C° 0.1 mm 3 mps 739 mmHg 77%
    19:00 +20°C° 0.1 mm 3 mps 739 mmHg 84%
    20:00 +18°C° 0.1 mm 2 mps 739 mmHg 90%
    21:00 +18°C° 0 mm 2 mps 739 mmHg 88%
    22:00 +17°C° 0 mm 2 mps 739 mmHg 87%
    23:00 +17°C° 0 mm 2 mps 739 mmHg 86%

    27 May, Monday

    Time Temperature Precipitation Wind Pressure Humidity
    00:00 +16°C° 0 mm 2 mps 739 mmHg 85%
    01:00 +16°C° 0 mm 2 mps 739 mmHg 84%
    02:00 +16°C° 0 mm 2 mps 739 mmHg 83%
    03:00 +16°C° 0 mm 2 mps 739 mmHg 84%
    04:00 +16°C° 0 mm 2 mps 739 mmHg 84%
    05:00 +16°C° 0 mm 2 mps 739 mmHg 85%
    06:00 +17°C° 0 mm 2 mps 739 mmHg 81%
    07:00 +19°C° 0 mm 2 mps 739 mmHg 76%
    08:00 +21°C° 0 mm 3 mps 740 mmHg 72%
    09:00 +22°C° 0 mm 3 mps 740 mmHg 68%
    10:00 +23°C° 0 mm 4 mps 740 mmHg 64%
    11:00 +25°C° 0 mm 4 mps 740 mmHg 61%
    12:00 +25°C° 0 mm 5 mps 740 mmHg 60%
    13:00 +25°C° 0 mm 5 mps 740 mmHg 59%
    14:00 +25°C° 0 mm 5 mps 739 mmHg 58%
    15:00 +23°C° 0 mm 5 mps 739 mmHg 61%
    16:00 +22°C° 0 mm 5 mps 739 mmHg 64%
    17:00 +22°C° 0 mm 5 mps 739 mmHg 67%
    18:00 +20°C° 0 mm 4 mps 738 mmHg 75%
    19:00 +18°C° 0 mm 3 mps 738 mmHg 83%
    20:00 +16°C° 0 mm 3 mps 738 mmHg 90%
    21:00 +14°C° 0 mm 3 mps 738 mmHg 91%
    22:00 +14°C° 0 mm 3 mps 738 mmHg 91%
    23:00 +14°C° 0 mm 3 mps 738 mmHg 91%

    28 May, Tuesday

    Time Temperature Precipitation Wind Pressure Humidity
    00:00 +14°C° 0 mm 3 mps 738 mmHg 90%
    01:00 +15°C° 0 mm 2 mps 737 mmHg 90%
    02:00 +14°C° 0 mm 2 mps 737 mmHg 89%
    03:00 +14°C° 0 mm 2 mps 737 mmHg 88%
    04:00 +14°C° 0 mm 2 mps 737 mmHg 88%
    05:00 +14°C° 0 mm 2 mps 736 mmHg 88%
    06:00 +16°C° 0 mm 3 mps 736 mmHg 82%
    07:00 +18°C° 0 mm 3 mps 737 mmHg 77%
    08:00 +20°C° 0 mm 4 mps 737 mmHg 72%
    09:00 +22°C° 0 mm 4 mps 737 mmHg 67%
    10:00 +23°C° 0 mm 4 mps 737 mmHg 63%
    11:00 +26°C° 0 mm 4 mps 737 mmHg 58%
    12:00 +27°C° 0 mm 4 mps 736 mmHg 57%
    13:00 +27°C° 0 mm 4 mps 736 mmHg 56%
    14:00 +28°C° 0 mm 4 mps 735 mmHg 55%
    15:00 +27°C° 0 mm 4 mps 735 mmHg 58%
    16:00 +26°C° 0 mm 4 mps 735 mmHg 62%
    17:00 +25°C° 0 mm 4 mps 734 mmHg 65%
    18:00 +22°C° 0 mm 4 mps 734 mmHg 70%
    19:00 +20°C° 0 mm 4 mps 734 mmHg 74%
    20:00 +18°C° 0 mm 3 mps 734 mmHg 78%
    21:00 +18°C° 0 mm 3 mps 734 mmHg 79%
    22:00 +18°C° 0 mm 3 mps 734 mmHg 80%
    23:00 +17°C° 0 mm 3 mps 734 mmHg 81%

    29 May, Wednesday

    Time Temperature Precipitation Wind Pressure Humidity
    00:00 +17°C° 0 mm 3 mps 734 mmHg 82%
    01:00 +17°C° 0 mm 3 mps 734 mmHg 82%
    02:00 +17°C° 0 mm 3 mps 734 mmHg 83%
    03:00 +16°C° 0 mm 3 mps 734 mmHg 78%
    04:00 +16°C° 0 mm 3 mps 734 mmHg 73%
    05:00 +14°C° 0 mm 3 mps 734 mmHg 68%
    06:00 +17°C° 0 mm 3 mps 735 mmHg 66%
    07:00 +19°C° 0 mm 3 mps 735 mmHg 65%
    08:00 +21°C° 0 mm 3 mps 736 mmHg 63%
    09:00 +23°C° 0 mm 4 mps 736 mmHg 61%
    10:00 +26°C° 0 mm 4 mps 736 mmHg 59%
    11:00 +27°C° 0 mm 4 mps 736 mmHg 57%
    12:00 +28°C° 0 mm 4 mps 736 mmHg 55%
    13:00 +29°C° 0 mm 4 mps 736 mmHg 52%
    14:00 +29°C° 0 mm 4 mps 736 mmHg 50%
    15:00 +29°C° 0 mm 3 mps 736 mmHg 52%
    16:00 +29°C° 0 mm 3 mps 736 mmHg 54%
    17:00 +29°C° 0 mm 3 mps 736 mmHg 56%
    18:00 +27°C° 0 mm 2 mps 736 mmHg 61%
    19:00 +25°C° 0 mm 2 mps 736 mmHg 67%
    20:00 +23°C° 0 mm 1 mps 737 mmHg 72%
    21:00 +22°C° 0 mm 1 mps 737 mmHg 73%
    22:00 +22°C° 0 mm 1 mps 737 mmHg 75%
    23:00 +21°C° 0 mm 1 mps 738 mmHg 76%
    Show more